Location: Spruce Knob
(38.6995°N, 79.5330°W)
Time: 22:33:51
(UTC-05:00)

Tiros 1 - Visible Passes

Search period start: 27 January 2022 00:00
Search period end: 06 February 2022 00:00
Orbit: 629 x 664 km, 48.4° (Epoch: 27 January)

Date Brightness Start Highest point End Pass type
(mag) Time Alt. Az. Time Alt. Az. Time Alt. Az.
27 Jan 9.5 04:39:35 16° SE 04:39:35 16° SE 04:40:34 10° SE visible
28 Jan 9.6 05:04:56 13° S 05:04:56 13° S 05:05:30 10° S visible
29 Jan 9.1 19:34:52 10° S 19:36:34 17° SSE 19:36:34 17° SSE visible
30 Jan 8.7 19:59:31 10° SW 20:01:58 28° SSW 20:01:58 28° SSW visible
31 Jan 8.7 18:44:42 10° S 18:48:10 20° SE 18:49:37 18° ESE visible
31 Jan 9.0 20:25:09 10° WSW 20:27:19 27° WSW 20:27:19 27° WSW visible
01 Feb 7.6 19:09:12 10° SSW 19:13:44 45° SE 19:14:54 37° E visible
01 Feb 9.8 20:51:22 10° W 20:52:35 17° W 20:52:35 17° W visible
02 Feb 7.1 19:34:44 10° WSW 19:39:32 86° NNW 19:40:05 70° NE visible
03 Feb 7.8 18:18:53 10° SSW 18:23:21 41° SE 18:27:31 12° ENE visible
03 Feb 7.9 20:00:54 10° W 20:05:11 47° NW 20:05:11 47° NW visible
04 Feb 7.1 18:44:20 10° SW 18:49:06 88° SE 18:52:33 19° ENE visible
04 Feb 9.1 20:27:26 10° W 20:30:13 26° NW 20:30:13 26° NW visible
05 Feb 7.8 19:10:26 10° WSW 19:15:05 50° NNW 19:17:32 26° NE visible
05 Feb 9.9 20:54:02 10° WNW 20:55:11 15° NW 20:55:11 15° NW visible
